This is the latest recevied weather packets stored in our database for station/object EA1GGY-1. If no packets are shown the sender has not sent any weather packets the latest 10 day(s).
| Time | Temp. | Humidity | Pressure | Rain* | Wind** | Luminosity | Snow |
|---|---|---|---|---|---|---|---|
| 1788479418 | 17.22° C | 59% | 1022 hPa | - | - | - | - |
| 1788478817 | 17.22° C | 60% | 1022 hPa | - | - | - | - |
| 1788478216 | 17.78° C | 59% | 1022 hPa | - | - | - | - |
| 1788477615 | 18.33° C | 58% | 1022 hPa | - | - | - | - |
| 1788477015 | 18.33° C | 56% | 1022.1 hPa | - | - | - | - |
| 1788476414 | 17.78° C | 59% | 1021.9 hPa | - | - | - | - |
| 1788475813 | 18.89° C | 56% | 1022 hPa | - | - | - | - |
| 1788475212 | 18.33° C | 58% | 1022.1 hPa | - | - | - | - |
| 1788474611 | 18.33° C | 57% | 1022 hPa | - | - | - | - |
| 1788474011 | 18.33° C | 57% | 1022.1 hPa | - | - | - | - |
| 1788473426 | 18.89° C | 57% | 1022 hPa | - | - | - | - |
| 1788472809 | 18.89° C | 56% | 1022 hPa | - | - | - | - |
| 1788472208 | 18.89° C | 56% | 1022.2 hPa | - | - | - | - |
| 1788471607 | 19.44° C | 55% | 1022.2 hPa | - | - | - | - |
| 1788471007 | 19.44° C | 53% | 1022.2 hPa | - | - | - | - |
| 1788470405 | 19.44° C | 54% | 1022.2 hPa | - | - | - | - |
| 1788469804 | 19.44° C | 55% | 1022.3 hPa | - | - | - | - |
| 1788469203 | 18.89° C | 55% | 1022.3 hPa | - | - | - | - |
| 1788468603 | 19.44° C | 54% | 1022.2 hPa | - | - | - | - |
| 1788468002 | 19.44° C | 54% | 1022.2 hPa | - | - | - | - |
| 1788467401 | 19.44° C | 53% | 1022.1 hPa | - | - | - | - |
| 1788466800 | 20° C | 53% | 1022 hPa | - | - | - | - |
| 1788466199 | 20° C | 52% | 1021.9 hPa | - | - | - | - |
| 1788464998 | 20.56° C | 52% | 1021.7 hPa | - | - | - | - |
| 1788464397 | 21.11° C | 51% | 1021.6 hPa | - | - | - | - |
* Rain since midnight (hover to see other rain measurements)
** Current wind speed in m/s (hover to see current wind gust speed)